Terug naar catalogus

STARLINK-3995

ActiefCommunicatieVLEO
NORAD 52632·PAYLOAD·🇺🇸 United States

Gelanceerd May 14, 2022 vanaf Cape Canaveral Space Force Station

Loading…

Volgende Passages (komende 24 uur)

TLE

VersSource: CelesTrak SupGP

Epoch: Sep 14, 2026, 21:18 UTC

1 52632C 22052AL  26257.88798611 -.00024295  00000+0 -15238-2 0  2570
2 52632  53.1578 139.1493 0001445  91.0829 198.6806 15.08839796    17

Volg STARLINK-3995 in realtime met AllMySat

Download on the App Store